Date String (YYYY-MM-DD hh:mm:ss) UTC,Instrument flags,Ambient pressure (hPa),Sample flow (lpm),Bypass flow (lpm),Sample temperature (°C),Ambient temperature (°C),ASC tube jacket temperature (°C),LED temperature (°C),Box temperature (°C),Sample RH (%),Span deviation,Mass concentration (μg/m³),Mass concentration (μg/m³),Mass concentration (μg/m³)
DateTimeUTC,F1_M11,P_M11,Q1_M11,Q2_M11,T1_M11,T2_M11,T3_M11,T4_M11,T5_M11,U1_M11,ZSPAN_M11,X2_M11,X0_M11,X1_M11
2021-11-01 05:00:00,,0829.2,5.00,0.00,25.3,24.4,00.0,34.4,27.1,18.0,0000.0,0005.02,0009.14,0004.72
2021-11-01 05:01:00,,0829.2,5.00,0.00,25.3,24.4,00.0,34.4,27.1,18.0,0000.0,0005.01,0009.21,0004.70
2021-11-01 05:02:00,,0829.3,5.00,0.00,25.3,24.4,00.0,34.4,27.1,18.0,0000.0,0005.04,0009.37,0004.70
2021-11-01 05:03:00,,0829.2,4.99,0.00,25.3,24.4,00.0,34.4,27.1,18.0,0000.0,0005.03,0009.62,0004.69
2021-11-01 05:04:00,,0829.3,5.00,0.00,25.3,24.4,00.0,34.4,27.1,18.0,0000.0,0005.02,0009.58,0004.69
2021-11-01 05:05:00,,0829.2,5.01,0.00,25.3,24.4,00.0,34.3,27.1,18.0,0000.0,0005.03,0009.56,0004.69
2021-11-01 05:06:00,,0829.2,5.00,0.00,25.2,24.4,00.0,34.3,27.1,18.0,0000.0,0005.04,0009.55,0004.68
2021-11-01 05:07:00,,0829.3,4.99,0.00,25.2,24.4,00.0,34.3,27.1,18.0,0000.0,0005.05,0009.66,0004.68
2021-11-01 05:08:00,,0829.3,5.01,0.00,25.2,24.4,00.0,34.3,27.1,18.0,0000.0,0005.05,0009.48,0004.67
2021-11-01 05:09:00,,0829.2,4.99,0.00,25.2,24.4,00.0,34.3,27.1,18.0,0000.0,0005.06,0008.89,0004.67
2021-11-01 05:10:00,,0829.2,5.00,0.00,25.3,24.4,00.0,34.3,27.1,18.0,0000.0,0005.03,0008.48,0004.67
2021-11-01 05:11:00,,0829.2,4.99,0.00,25.3,24.4,00.0,34.3,27.1,18.0,0000.0,0005.00,0008.55,0004.67
2021-11-01 05:12:00,,0829.0,5.00,0.00,25.3,24.4,00.0,34.3,27.1,18.0,0000.0,0004.98,0009.16,0004.67
2021-11-01 05:13:00,,0829.0,4.99,0.00,25.3,24.4,00.0,34.3,27.1,18.0,0000.0,0004.96,0009.00,0004.66
2021-11-01 05:14:00,,0829.0,5.01,0.00,25.3,24.4,00.0,34.3,27.1,18.0,0000.0,0004.94,0008.67,0004.67
2021-11-01 05:15:00,,0829.0,4.99,0.00,25.3,24.4,00.0,34.3,27.1,18.0,0000.0,0004.96,0008.78,0004.69
2021-11-01 05:16:00,,0829.0,5.00,0.00,25.3,24.4,00.0,34.3,27.1,18.0,0000.0,0004.97,0009.02,0004.71
2021-11-01 05:17:00,,0829.1,5.01,0.00,25.3,24.4,00.0,34.3,27.1,18.0,0000.0,0004.99,0009.07,0004.73
2021-11-01 05:18:00,,0829.1,4.99,0.00,25.3,24.4,00.0,34.3,27.1,17.9,0000.0,0005.02,0009.09,0004.74
2021-11-01 05:19:00,,0829.1,5.00,0.00,25.3,24.4,00.0,34.3,27.1,17.9,0000.0,0005.05,0009.10,0004.76
2021-11-01 05:20:00,,0829.0,5.00,0.00,25.3,24.4,00.0,34.3,27.1,18.0,0000.0,0005.06,0009.16,0004.77
2021-11-01 05:21:00,,0829.0,4.99,0.00,25.3,24.4,00.0,34.3,27.1,18.0,0000.0,0005.08,0009.13,0004.78
2021-11-01 05:22:00,,0828.9,5.01,0.00,25.3,24.4,00.0,34.3,27.1,17.9,0000.0,0005.10,0008.47,0004.77
2021-11-01 05:23:00,,0828.9,5.00,0.00,25.3,24.4,00.0,34.3,27.1,17.9,0000.0,0005.10,0007.84,0004.77
2021-11-01 05:24:00,,0829.0,4.99,0.00,25.3,24.4,00.0,34.3,27.1,17.9,0000.0,0005.10,0007.87,0004.75
2021-11-01 05:25:00,,0829.0,5.01,0.00,25.3,24.4,00.0,34.3,27.1,17.9,0000.0,0005.10,0007.89,0004.73
2021-11-01 05:26:00,,0829.0,5.00,0.00,25.3,24.4,00.0,34.3,27.1,18.0,0000.0,0005.08,0007.79,0004.70
2021-11-01 05:27:00,,0829.1,5.00,0.00,25.3,24.4,00.0,34.3,27.1,18.0,0000.0,0005.07,0007.63,0004.68
2021-11-01 05:28:00,,0829.0,4.99,0.00,25.3,24.4,00.0,34.3,27.1,18.0,0000.0,0005.06,0007.75,0004.67
2021-11-01 05:29:00,,0828.9,4.99,0.00,25.3,24.4,00.0,34.3,27.1,17.9,0000.0,0005.01,0008.10,0004.65
2021-11-01 05:30:00,,0828.8,5.00,0.00,25.3,24.4,00.0,34.3,27.1,18.0,0000.0,0004.99,0008.22,0004.64
2021-11-01 05:31:00,,0828.9,5.00,0.00,25.3,24.4,00.0,34.3,27.1,17.9,0000.0,0005.02,0008.32,0004.65
2021-11-01 05:32:00,,0829.2,5.01,0.00,25.3,24.4,00.0,34.3,27.1,17.9,0000.0,0005.03,0008.69,0004.65
2021-11-01 05:33:00,,0829.4,5.00,0.00,25.3,24.4,00.0,34.3,27.1,17.9,0000.0,0005.04,0009.15,0004.67
2021-11-01 05:34:00,,0829.3,4.98,0.00,25.3,24.4,00.0,34.3,27.1,17.9,0000.0,0005.07,0009.18,0004.68
2021-11-01 05:35:00,,0829.3,5.02,0.00,25.3,24.4,00.0,34.3,27.1,17.9,0000.0,0005.10,0009.72,0004.69
2021-11-01 05:36:00,,0829.1,4.99,0.00,25.3,24.4,00.0,34.3,27.1,18.0,0000.0,0005.13,0010.21,0004.71
2021-11-01 05:37:00,,0828.8,5.00,0.00,25.2,24.4,00.0,34.3,27.1,18.0,0000.0,0005.17,0010.49,0004.73
2021-11-01 05:38:00,,0828.9,4.99,0.00,25.2,24.4,00.0,34.3,27.1,18.0,0000.0,0005.20,0010.47,0004.75
2021-11-01 05:39:00,,0829.3,5.00,0.00,25.3,24.4,00.0,34.3,27.1,18.1,0000.0,0005.22,0010.39,0004.76
2021-11-01 05:40:00,,0828.7,5.00,0.00,25.3,24.4,00.0,34.3,27.1,18.1,0000.0,0005.26,0010.04,0004.78
2021-11-01 05:41:00,,0828.7,5.01,0.00,25.2,24.4,00.0,34.3,27.1,18.1,0000.0,0005.27,0009.98,0004.80
2021-11-01 05:42:00,,0829.0,5.01,0.00,25.3,24.4,00.0,34.3,27.1,18.1,0000.0,0005.27,0009.93,0004.82
2021-11-01 05:43:00,,0829.3,4.99,0.00,25.2,24.4,00.0,34.3,27.1,18.1,0000.0,0005.27,0010.13,0004.83
2021-11-01 05:44:00,,0829.1,5.00,0.00,25.2,24.4,00.0,34.3,27.1,18.1,0000.0,0005.27,0009.77,0004.84
2021-11-01 05:45:00,,0829.0,5.00,0.00,25.2,24.4,00.0,34.3,27.1,18.1,0000.0,0005.27,0010.78,0004.85
2021-11-01 05:46:00,,0829.1,5.01,0.00,25.2,24.4,00.0,34.3,27.1,18.1,0000.0,0005.26,0010.78,0004.85
2021-11-01 05:47:00,,0828.9,5.00,0.00,25.2,24.4,00.0,34.3,27.1,18.2,0000.0,0005.24,0010.33,0004.85
2021-11-01 05:48:00,,0828.5,4.99,0.00,25.2,24.4,00.0,34.3,27.1,18.2,0000.0,0005.20,0010.16,0004.86
2021-11-01 05:49:00,,0828.6,5.01,0.00,25.2,24.3,00.0,34.3,27.0,18.3,0000.0,0005.20,0010.61,0004.87
2021-11-01 05:50:00,,0829.0,4.99,0.00,25.2,24.3,00.0,34.2,27.0,18.3,0000.0,0005.20,0010.83,0004.90
2021-11-01 05:51:00,,0828.8,5.01,0.00,25.2,24.3,00.0,34.2,27.0,18.4,0000.0,0005.24,0010.76,0004.93
2021-11-01 05:52:00,,0828.6,4.99,0.00,25.2,24.3,00.0,34.2,27.0,18.5,0000.0,0005.25,0010.66,0004.96
2021-11-01 05:53:00,,0828.9,5.01,0.00,25.2,24.3,00.0,34.2,27.0,18.6,0000.0,0005.28,0010.63,0004.98
2021-11-01 05:54:00,,0828.8,5.00,0.00,25.2,24.3,00.0,34.2,27.0,18.6,0000.0,0005.32,0010.09,0005.02
2021-11-01 05:55:00,,0828.8,5.01,0.00,25.2,24.3,00.0,34.2,27.0,18.7,0000.0,0005.39,0010.21,0005.09
2021-11-01 05:56:00,,0829.2,5.00,0.00,25.2,24.3,00.0,34.2,27.0,18.7,0000.0,0005.48,0009.34,0005.15
2021-11-01 05:57:00,,0829.1,4.99,0.00,25.2,24.3,00.0,34.2,27.0,18.6,0000.0,0005.52,0009.09,0005.22
2021-11-01 05:58:00,,0828.8,5.01,0.00,25.2,24.3,00.0,34.2,27.0,18.6,0000.0,0005.60,0009.12,0005.28
2021-11-01 05:59:00,,0828.7,5.00,0.00,25.1,24.3,00.0,34.2,27.0,18.6,0000.0,0005.68,0009.11,0005.35
